TimeCST,TemperatureF,Dew PointF,Humidity,Sea Level PressureIn,VisibilityMPH,Wind Direction,Wind SpeedMPH,Gust SpeedMPH,PrecipitationIn,Events,Conditions,WindDirDegrees,DateUTC
12:15 AM,42.8,41.0,93,29.80,10.0,Calm,Calm,-,N/A,,Clear,0,2014-01-11 06:15:00
12:35 AM,41.0,39.2,93,29.80,10.0,Calm,Calm,-,N/A,,Clear,0,2014-01-11 06:35:00
12:55 AM,41.0,39.2,93,29.80,10.0,SSW,5.8,-,N/A,,Clear,210,2014-01-11 06:55:00
12:59 AM,41.0,39.2,93,29.81,10.0,SSW,5.8,-,N/A,,Clear,210,2014-01-11 06:59:00
1:19 AM,39.2,37.4,93,29.81,10.0,SW,3.5,-,N/A,,Clear,230,2014-01-11 07:19:00
1:35 AM,37.4,35.6,93,29.81,10.0,SW,3.5,-,N/A,,Clear,220,2014-01-11 07:35:00
1:55 AM,37.4,35.6,93,29.82,10.0,WSW,3.5,-,N/A,,Clear,250,2014-01-11 07:55:00
2:15 AM,37.4,35.6,93,29.83,7.0,West,3.5,-,N/A,,Clear,260,2014-01-11 08:15:00
2:35 AM,37.4,35.6,93,29.84,7.0,West,4.6,-,N/A,,Clear,270,2014-01-11 08:35:00
2:55 AM,37.4,37.4,100,29.84,10.0,WSW,3.5,-,N/A,,Clear,240,2014-01-11 08:55:00
3:35 AM,39.2,37.4,93,29.85,10.0,NW,6.9,-,N/A,,Clear,320,2014-01-11 09:35:00
3:55 AM,39.2,37.4,93,29.85,10.0,NW,5.8,-,N/A,,Clear,310,2014-01-11 09:55:00
4:15 AM,39.2,37.4,93,29.85,10.0,NW,8.1,-,N/A,,Clear,320,2014-01-11 10:15:00
4:35 AM,39.2,37.4,93,29.87,10.0,WNW,5.8,-,N/A,,Clear,300,2014-01-11 10:35:00
4:55 AM,39.2,37.4,93,29.88,10.0,WNW,5.8,-,N/A,,Clear,300,2014-01-11 10:55:00
5:15 AM,39.2,35.6,87,29.89,10.0,NW,5.8,-,N/A,,Clear,310,2014-01-11 11:15:00
5:35 AM,39.2,33.8,81,29.90,10.0,WNW,5.8,-,N/A,,Clear,300,2014-01-11 11:35:00
5:55 AM,37.4,33.8,87,29.91,10.0,WNW,5.8,-,N/A,,Clear,300,2014-01-11 11:55:00
6:15 AM,37.4,33.8,87,29.92,10.0,West,5.8,-,N/A,,Clear,270,2014-01-11 12:15:00
6:35 AM,37.4,32.0,81,29.93,10.0,West,5.8,-,N/A,,Clear,260,2014-01-11 12:35:00
6:55 AM,35.6,32.0,87,29.94,10.0,WSW,3.5,-,N/A,,Clear,250,2014-01-11 12:55:00
7:15 AM,35.6,32.0,87,29.95,10.0,WSW,6.9,-,N/A,,Clear,250,2014-01-11 13:15:00
7:35 AM,35.6,32.0,87,29.96,10.0,West,5.8,-,N/A,,Clear,270,2014-01-11 13:35:00
7:55 AM,35.6,32.0,87,29.98,10.0,West,5.8,-,N/A,,Clear,260,2014-01-11 13:55:00
8:15 AM,37.4,33.8,87,29.99,10.0,West,5.8,-,N/A,,Clear,260,2014-01-11 14:15:00
8:35 AM,39.2,33.8,81,29.99,10.0,West,8.1,-,N/A,,Clear,260,2014-01-11 14:35:00
8:55 AM,41.0,33.8,76,30.00,10.0,West,8.1,-,N/A,,Clear,270,2014-01-11 14:55:00
9:15 AM,42.8,33.8,70,30.02,10.0,West,10.4,-,N/A,,Clear,270,2014-01-11 15:15:00
9:35 AM,44.6,33.8,66,30.02,10.0,West,8.1,-,N/A,,Clear,280,2014-01-11 15:35:00
9:55 AM,46.4,33.8,62,30.03,10.0,WNW,8.1,-,N/A,,Clear,290,2014-01-11 15:55:00
10:15 AM,46.4,33.8,62,30.04,10.0,West,9.2,-,N/A,,Clear,280,2014-01-11 16:15:00
10:35 AM,50.0,35.6,58,30.04,10.0,West,10.4,-,N/A,,Clear,280,2014-01-11 16:35:00
10:55 AM,50.0,35.6,58,30.04,10.0,West,8.1,-,N/A,,Clear,270,2014-01-11 16:55:00
11:15 AM,51.8,37.4,58,30.04,10.0,WSW,9.2,-,N/A,,Clear,250,2014-01-11 17:15:00
11:35 AM,51.8,35.6,54,30.03,10.0,West,11.5,-,N/A,,Clear,270,2014-01-11 17:35:00
11:55 AM,53.6,35.6,51,30.02,10.0,West,9.2,-,N/A,,Clear,270,2014-01-11 17:55:00
12:15 PM,55.4,35.6,47,30.01,10.0,West,9.2,-,N/A,,Clear,280,2014-01-11 18:15:00
12:35 PM,57.2,32.0,38,30.01,10.0,WNW,11.5,18.4,N/A,,Clear,290,2014-01-11 18:35:00
12:55 PM,57.2,32.0,38,30.00,10.0,West,16.1,19.6,N/A,,Clear,280,2014-01-11 18:55:00
1:15 PM,59.0,32.0,36,30.00,10.0,West,16.1,-,N/A,,Clear,280,2014-01-11 19:15:00
1:35 PM,59.0,32.0,36,29.99,10.0,West,13.8,17.3,N/A,,Clear,280,2014-01-11 19:35:00
1:55 PM,59.0,32.0,36,29.99,10.0,West,12.7,20.7,N/A,,Clear,280,2014-01-11 19:55:00
2:15 PM,60.8,32.0,34,29.99,10.0,WNW,15.0,-,N/A,,Clear,290,2014-01-11 20:15:00
2:35 PM,60.8,32.0,34,29.99,10.0,West,15.0,-,N/A,,Clear,280,2014-01-11 20:35:00
2:55 PM,60.8,32.0,34,29.99,10.0,West,12.7,18.4,N/A,,Clear,270,2014-01-11 20:55:00
3:15 PM,60.8,30.2,31,30.00,10.0,WNW,15.0,18.4,N/A,,Clear,290,2014-01-11 21:15:00
3:35 PM,60.8,30.2,31,30.00,10.0,West,10.4,17.3,N/A,,Clear,280,2014-01-11 21:35:00
3:55 PM,60.8,32.0,34,30.00,10.0,West,8.1,-,N/A,,Clear,280,2014-01-11 21:55:00
4:15 PM,60.8,32.0,34,30.01,10.0,WNW,8.1,-,N/A,,Clear,300,2014-01-11 22:15:00
4:35 PM,60.8,32.0,34,30.01,10.0,WNW,10.4,-,N/A,,Clear,290,2014-01-11 22:35:00
4:55 PM,60.8,30.2,31,30.01,10.0,WNW,8.1,-,N/A,,Clear,300,2014-01-11 22:55:00
5:15 PM,59.0,28.4,31,30.01,10.0,WNW,5.8,-,N/A,,Clear,300,2014-01-11 23:15:00
5:35 PM,57.2,28.4,33,30.02,10.0,WNW,8.1,-,N/A,,Clear,290,2014-01-11 23:35:00
5:55 PM,53.6,26.6,35,30.02,10.0,WNW,5.8,-,N/A,,Clear,290,2014-01-11 23:55:00
6:15 PM,53.6,26.6,35,30.02,10.0,West,3.5,-,N/A,,Clear,280,2014-01-12 00:15:00
6:55 PM,50.0,26.6,40,30.03,10.0,WNW,3.5,-,N/A,,Clear,290,2014-01-12 00:55:00
6:59 PM,51.8,24.8,35,30.03,10.0,West,3.5,-,N/A,,Clear,270,2014-01-12 00:59:00
7:15 PM,50.0,26.6,40,30.04,10.0,West,4.6,-,N/A,,Clear,260,2014-01-12 01:15:00
7:35 PM,46.4,26.6,46,30.04,10.0,WNW,4.6,-,N/A,,Clear,290,2014-01-12 01:35:00
7:39 PM,48.2,26.6,43,30.04,10.0,WNW,4.6,-,N/A,,Clear,290,2014-01-12 01:39:00
8:01 PM,46.4,26.6,46,30.04,10.0,Calm,Calm,-,N/A,,Clear,0,2014-01-12 02:01:00
8:19 PM,46.4,24.8,43,30.05,10.0,Calm,Calm,-,N/A,,Clear,0,2014-01-12 02:19:00
8:39 PM,44.6,28.4,53,30.06,10.0,SW,5.8,-,N/A,,Clear,220,2014-01-12 02:39:00
8:59 PM,42.8,28.4,57,30.07,10.0,SW,3.5,-,N/A,,Clear,230,2014-01-12 02:59:00
9:19 PM,42.8,26.6,53,30.07,10.0,SW,3.5,-,N/A,,Clear,220,2014-01-12 03:19:00
9:39 PM,39.2,28.4,65,30.07,10.0,Calm,Calm,-,N/A,,Clear,0,2014-01-12 03:39:00
10:15 PM,41.0,28.4,61,30.07,10.0,SSW,4.6,-,N/A,,Clear,210,2014-01-12 04:15:00
10:55 PM,39.2,28.4,65,30.07,10.0,SSW,3.5,-,N/A,,Clear,200,2014-01-12 04:55:00
10:59 PM,39.2,28.4,65,30.07,10.0,Calm,Calm,-,N/A,,Clear,0,2014-01-12 04:59:00
11:19 PM,37.4,30.2,75,30.06,10.0,Calm,Calm,-,N/A,,Clear,0,2014-01-12 05:19:00
11:55 PM,35.6,28.4,75,30.06,10.0,Calm,Calm,-,N/A,,Clear,0,2014-01-12 05:55:00